UPS2636 KSDF-KSAN

Flight info

Callsign UPS2636
Flight time N/A
Altitude 28000
Route LLIZY1 DAAVE ENL SGF LBL GUP J8 FLG PKE LUCKI1
Aircraft MD11/H-SDE1E2E3FGHIJ2J3J4J5M1RWXY/LB1D1

Departure

Time 2026-05-05 15:01
Airport Louisville Muhammad Ali International Airport (KSDF)

Arrival

Time N/A
Airport San Diego International Airport (KSAN)
Time Latitude Longitude Altitude Speed Heading
2026-05-05 14:37 38.17449 -85.73973 489 ft 0 kts 21°
2026-05-05 14:49 38.17447 -85.73974 487 ft 2 kts 21°
2026-05-05 14:49 38.17424 -85.73983 489 ft 4 kts
2026-05-05 14:49 38.17400 -85.73979 486 ft 4 kts 328°
2026-05-05 14:49 38.17384 -85.73960 486 ft 3 kts 292°
2026-05-05 14:50 38.17375 -85.73932 486 ft 4 kts 291°
2026-05-05 14:50 38.17373 -85.73924 486 ft 0 kts 291°
2026-05-05 14:52 38.17377 -85.73939 486 ft 5 kts 291°
2026-05-05 14:52 38.17397 -85.74005 490 ft 8 kts 291°
2026-05-05 14:53 38.17415 -85.74063 488 ft 6 kts 291°
2026-05-05 14:53 38.17437 -85.74134 488 ft 11 kts 291°
2026-05-05 14:53 38.17481 -85.74210 490 ft 10 kts 328°
2026-05-05 14:53 38.17550 -85.74239 491 ft 10 kts 345°
2026-05-05 14:54 38.17617 -85.74261 491 ft 10 kts 345°
2026-05-05 14:54 38.17701 -85.74288 492 ft 14 kts 345°
2026-05-05 14:54 38.17798 -85.74321 490 ft 13 kts 345°
2026-05-05 14:54 38.17878 -85.74347 493 ft 10 kts 345°
2026-05-05 14:55 38.17935 -85.74366 495 ft 7 kts 345°
2026-05-05 14:55 38.17980 -85.74376 492 ft 4 kts
2026-05-05 14:55 38.18004 -85.74344 489 ft 5 kts 69°
2026-05-05 14:55 38.18004 -85.74296 492 ft 7 kts 97°
2026-05-05 14:56 38.18012 -85.74220 491 ft 11 kts 69°
2026-05-05 14:56 38.18053 -85.74121 489 ft 14 kts 58°
2026-05-05 14:56 38.18110 -85.74001 487 ft 18 kts 59°
2026-05-05 14:56 38.18177 -85.73856 485 ft 19 kts 59°
2026-05-05 14:57 38.18237 -85.73724 489 ft 16 kts 59°
2026-05-05 14:57 38.18291 -85.73607 493 ft 14 kts 60°
2026-05-05 14:57 38.18337 -85.73507 490 ft 12 kts 60°
2026-05-05 14:57 38.18388 -85.73448 485 ft 9 kts 24°
2026-05-05 14:58 38.18437 -85.73433 491 ft 6 kts
2026-05-05 14:58 38.18484 -85.73426 491 ft 9 kts
2026-05-05 14:58 38.18560 -85.73407 491 ft 10 kts 12°
2026-05-05 14:58 38.18613 -85.73381 494 ft 7 kts 32°
2026-05-05 14:59 38.18641 -85.73334 495 ft 8 kts 67°
2026-05-05 14:59 38.18644 -85.73267 499 ft 8 kts 97°
2026-05-05 14:59 38.18635 -85.73210 501 ft 6 kts 100°
2026-05-05 14:59 38.18631 -85.73177 504 ft 4 kts 101°
2026-05-05 15:00 38.18628 -85.73160 505 ft 3 kts 101°
2026-05-05 15:00 38.18622 -85.73132 506 ft 7 kts 110°
2026-05-05 15:00 38.18525 -85.73063 505 ft 31 kts 165°
2026-05-05 15:00 38.18016 -85.72890 501 ft 118 kts 165°
2026-05-05 15:01 38.17018 -85.72556 665 ft 165 kts 166°
2026-05-05 15:01 38.15937 -85.72154 1648 ft 161 kts 168°
2026-05-05 15:01 38.14873 -85.71657 2529 ft 167 kts 167°
2026-05-05 15:01 38.13777 -85.71047 3201 ft 176 kts 165°
2026-05-05 15:02 38.12649 -85.70601 3782 ft 180 kts 176°
2026-05-05 15:02 38.11257 -85.70374 3946 ft 211 kts 187°
2026-05-05 15:02 38.09740 -85.70700 4102 ft 232 kts 205°
2026-05-05 15:02 38.08375 -85.71884 4506 ft 244 kts 231°
2026-05-05 15:03 38.07558 -85.73772 5390 ft 248 kts 250°
2026-05-05 15:03 38.07042 -85.75889 6308 ft 254 kts 253°
2026-05-05 15:03 38.06623 -85.78095 7144 ft 260 kts 262°
2026-05-05 15:03 38.06610 -85.80415 7966 ft 268 kts 270°
2026-05-05 15:04 38.06775 -85.82768 8755 ft 273 kts 272°
2026-05-05 15:04 38.06983 -85.85180 9552 ft 278 kts 272°
2026-05-05 15:04 38.07201 -85.87644 10219 ft 288 kts 272°
2026-05-05 15:04 38.07362 -85.90286 10346 ft 313 kts 267°
2026-05-05 15:05 38.07119 -85.96151 11201 ft 341 kts 262°
2026-05-05 15:05 38.06924 -85.99154 12079 ft 342 kts 262°
2026-05-05 15:05 38.06725 -86.02174 12916 ft 344 kts 263°
2026-05-05 15:06 38.06662 -86.05228 13666 ft 349 kts 271°
2026-05-05 15:06 38.07022 -86.08290 14373 ft 354 kts 278°
2026-05-05 15:06 38.07562 -86.11340 14999 ft 358 kts 280°
2026-05-05 15:06 38.08167 -86.14423 15656 ft 362 kts 281°
2026-05-05 15:07 38.08786 -86.17533 16289 ft 365 kts 281°
2026-05-05 15:07 38.09407 -86.20682 16870 ft 370 kts 281°
2026-05-05 15:07 38.10025 -86.23871 17476 ft 374 kts 281°
2026-05-05 15:07 38.10644 -86.27096 18050 ft 378 kts 281°
2026-05-05 15:08 38.11263 -86.30349 18583 ft 380 kts 281°
2026-05-05 15:08 38.11882 -86.33622 19094 ft 382 kts 281°
2026-05-05 15:08 38.12503 -86.36916 19588 ft 385 kts 281°
2026-05-05 15:08 38.13127 -86.40233 20083 ft 387 kts 281°
2026-05-05 15:09 38.13752 -86.43564 20569 ft 389 kts 281°
2026-05-05 15:09 38.14381 -86.46921 21096 ft 391 kts 281°
2026-05-05 15:09 38.14986 -86.50252 21557 ft 393 kts 278°
2026-05-05 15:09 38.15247 -86.53698 22048 ft 393 kts 270°
2026-05-05 15:10 38.15170 -86.57188 22568 ft 396 kts 266°
2026-05-05 15:10 38.14960 -86.60673 23200 ft 395 kts 265°
2026-05-05 15:10 38.14719 -86.64164 23722 ft 397 kts 265°
2026-05-05 15:10 38.14481 -86.67663 24251 ft 398 kts 265°
2026-05-05 15:11 38.14253 -86.71173 24699 ft 400 kts 265°
2026-05-05 15:11 38.14171 -86.74706 25194 ft 401 kts 272°
2026-05-05 15:11 38.14432 -86.78240 25725 ft 402 kts 276°
2026-05-05 15:11 38.14859 -86.81766 26285 ft 403 kts 278°
2026-05-05 15:12 38.15338 -86.85265 26895 ft 402 kts 278°
2026-05-05 15:12 38.15824 -86.88766 27424 ft 403 kts 278°
2026-05-05 15:12 38.16301 -86.92276 27927 ft 404 kts 278°
2026-05-05 15:12 38.16768 -86.95800 28421 ft 404 kts 277°
2026-05-05 15:13 38.17227 -86.99327 28950 ft 405 kts 277°
2026-05-05 15:13 38.17680 -87.02861 29422 ft 406 kts 276°
2026-05-05 15:13 38.18129 -87.06394 29858 ft 407 kts 276°
2026-05-05 15:13 38.18580 -87.09954 30234 ft 408 kts 276°
2026-05-05 15:14 38.19029 -87.13514 30606 ft 408 kts 277°
2026-05-05 15:14 38.19471 -87.17029 30976 ft 407 kts 277°
2026-05-05 15:14 38.19917 -87.20575 31430 ft 404 kts 277°
2026-05-05 15:14 38.20357 -87.24085 31940 ft 399 kts 277°
2026-05-05 15:15 38.20791 -87.27555 32442 ft 394 kts 278°
2026-05-05 15:15 38.21218 -87.30985 32838 ft 391 kts 278°
2026-05-05 15:15 38.21641 -87.34387 33210 ft 387 kts 278°
2026-05-05 15:15 38.22058 -87.37756 33604 ft 384 kts 278°
2026-05-05 15:16 38.22472 -87.41102 33828 ft 383 kts 278°
2026-05-05 15:16 38.23297 -87.47800 33880 ft 384 kts 278°
2026-05-05 15:17 38.24120 -87.54512 33884 ft 383 kts 278°
2026-05-05 15:17 38.24938 -87.61212 33881 ft 383 kts 278°
2026-05-05 15:18 38.25752 -87.67916 33877 ft 383 kts 278°
2026-05-05 15:18 38.26560 -87.74594 33870 ft 385 kts 278°
2026-05-05 15:19 38.27360 -87.81358 33866 ft 386 kts 278°
2026-05-05 15:19 38.28144 -87.88138 33869 ft 387 kts 278°
2026-05-05 15:20 38.28933 -87.94861 33865 ft 387 kts 278°
2026-05-05 15:20 38.29732 -88.01634 33865 ft 387 kts 278°
2026-05-05 15:21 38.30530 -88.08402 33863 ft 387 kts 278°
2026-05-05 15:21 38.31327 -88.15203 33860 ft 390 kts 277°
2026-05-05 15:22 38.32126 -88.22049 33864 ft 391 kts 277°
2026-05-05 15:22 38.32921 -88.28908 33874 ft 391 kts 277°
2026-05-05 15:23 38.33712 -88.35761 33874 ft 391 kts 277°
2026-05-05 15:23 38.34499 -88.42614 33871 ft 391 kts 277°
2026-05-05 15:24 38.35281 -88.49458 33860 ft 392 kts 277°
2026-05-05 15:24 38.36061 -88.56332 33868 ft 395 kts 277°
2026-05-05 15:25 38.36845 -88.63267 33865 ft 395 kts 277°
2026-05-05 15:25 38.37493 -88.69033 33874 ft 395 kts 277°
2026-05-05 15:26 38.38268 -88.75964 33878 ft 395 kts 277°
2026-05-05 15:26 38.39039 -88.82897 33878 ft 395 kts 277°
2026-05-05 15:27 38.39780 -88.89856 33881 ft 397 kts 277°
2026-05-05 15:27 38.40529 -88.96835 33876 ft 398 kts 277°
2026-05-05 15:28 38.41287 -89.03822 33873 ft 398 kts 277°
2026-05-05 15:28 38.41824 -89.10774 33878 ft 397 kts 274°
2026-05-05 15:29 38.42043 -89.17828 33877 ft 398 kts 270°
2026-05-05 15:29 38.41491 -89.24852 33877 ft 400 kts 261°
2026-05-05 15:30 38.39919 -89.31698 33878 ft 403 kts 255°
2026-05-05 15:30 38.38089 -89.38466 33877 ft 403 kts 255°
2026-05-05 15:31 38.36298 -89.45194 33865 ft 403 kts 256°
2026-05-05 15:31 38.34524 -89.51981 33864 ft 403 kts 256°
2026-05-05 15:32 38.32757 -89.58766 33870 ft 403 kts 256°
2026-05-05 15:32 38.30987 -89.65551 33870 ft 403 kts 256°
2026-05-05 15:33 38.29212 -89.72335 33869 ft 403 kts 256°
2026-05-05 15:33 38.27448 -89.79062 33863 ft 403 kts 256°
2026-05-05 15:34 38.25665 -89.85841 33861 ft 403 kts 256°
2026-05-05 15:34 38.23879 -89.92613 33862 ft 404 kts 256°
2026-05-05 15:35 38.22152 -89.99402 33868 ft 403 kts 257°
2026-05-05 15:35 38.20500 -90.06206 33876 ft 401 kts 257°
2026-05-05 15:36 38.18864 -90.12995 33838 ft 401 kts 257°
2026-05-05 15:36 38.17223 -90.19788 33885 ft 403 kts 257°
2026-05-05 15:37 38.15583 -90.26543 33882 ft 403 kts 257°
2026-05-05 15:37 38.13928 -90.33338 33885 ft 402 kts 257°
2026-05-05 15:38 38.12270 -90.40128 33886 ft 402 kts 257°
2026-05-05 15:38 38.10607 -90.46917 33888 ft 402 kts 257°
2026-05-05 15:39 38.08943 -90.53695 33892 ft 402 kts 257°
2026-05-05 15:39 38.07277 -90.60461 33893 ft 402 kts 257°
2026-05-05 15:40 38.05614 -90.67195 33893 ft 402 kts 257°
2026-05-05 15:40 38.03940 -90.73953 33890 ft 401 kts 257°
2026-05-05 15:41 38.02260 -90.80718 33892 ft 401 kts 257°
2026-05-05 15:41 38.00577 -90.87474 33891 ft 401 kts 257°
2026-05-05 15:42 37.98893 -90.94219 33895 ft 401 kts 257°
2026-05-05 15:42 37.97181 -91.00952 33901 ft 401 kts 256°
2026-05-05 15:43 37.95469 -91.07688 33886 ft 401 kts 257°
2026-05-05 15:43 37.93769 -91.14417 33881 ft 403 kts 257°
2026-05-05 15:44 37.92064 -91.21167 33887 ft 404 kts 257°
2026-05-05 15:44 37.90346 -91.27951 33883 ft 405 kts 257°
2026-05-05 15:45 37.88623 -91.34739 33884 ft 405 kts 257°
2026-05-05 15:45 37.86894 -91.41530 33874 ft 405 kts 257°
2026-05-05 15:46 37.85163 -91.48311 33878 ft 405 kts 257°
2026-05-05 15:46 37.83429 -91.55086 33881 ft 404 kts 257°
2026-05-05 15:47 37.81695 -91.61839 33868 ft 403 kts 257°
2026-05-05 15:47 37.79971 -91.68543 33861 ft 403 kts 257°
2026-05-05 15:48 37.78232 -91.75283 33863 ft 403 kts 257°
2026-05-05 15:48 37.76486 -91.82028 33861 ft 403 kts 257°
2026-05-05 15:49 37.74740 -91.88762 33858 ft 403 kts 257°
2026-05-05 15:49 37.72986 -91.95497 33866 ft 403 kts 257°
2026-05-05 15:50 37.71510 -92.01068 33869 ft 403 kts 256°
2026-05-05 15:50 37.69731 -92.07793 33830 ft 403 kts 257°
2026-05-05 15:51 37.67961 -92.14522 33869 ft 404 kts 257°
2026-05-05 15:51 37.66202 -92.21213 33867 ft 404 kts 257°
2026-05-05 15:52 37.64426 -92.27954 33865 ft 405 kts 256°
2026-05-05 15:52 37.62648 -92.34684 33857 ft 405 kts 256°
2026-05-05 15:53 37.60864 -92.41418 33879 ft 405 kts 256°
2026-05-05 15:53 37.59076 -92.48154 33884 ft 405 kts 256°
2026-05-05 15:54 37.57284 -92.54883 33892 ft 405 kts 256°
2026-05-05 15:54 37.55497 -92.61576 33896 ft 405 kts 256°
2026-05-05 15:55 37.53697 -92.68304 33898 ft 405 kts 256°
2026-05-05 15:55 37.51890 -92.75033 33882 ft 404 kts 256°
2026-05-05 15:56 37.50086 -92.81739 33836 ft 404 kts 256°
2026-05-05 15:56 37.48283 -92.88423 33833 ft 404 kts 256°
2026-05-05 15:57 37.46467 -92.95131 33828 ft 404 kts 256°
2026-05-05 15:57 37.44624 -93.01822 33831 ft 405 kts 256°
2026-05-05 15:58 37.42789 -93.08506 33817 ft 402 kts 256°
2026-05-05 15:58 37.40989 -93.15090 33827 ft 401 kts 256°
2026-05-05 15:59 37.39179 -93.21714 33829 ft 401 kts 256°
2026-05-05 15:59 37.37363 -93.28347 33818 ft 401 kts 256°
2026-05-05 16:00 37.35658 -93.35005 33819 ft 397 kts 262°
2026-05-05 16:00 37.35202 -93.41869 33821 ft 393 kts 271°
2026-05-05 16:01 37.35229 -93.48743 33822 ft 393 kts 271°
2026-05-05 16:01 37.35233 -93.55623 33821 ft 394 kts 271°
2026-05-05 16:02 37.35186 -93.62504 33821 ft 394 kts 271°
2026-05-05 16:02 37.35119 -93.69386 33823 ft 394 kts 270°
2026-05-05 16:03 37.35044 -93.76227 33822 ft 394 kts 270°
2026-05-05 16:03 37.34965 -93.83107 33828 ft 393 kts 270°
2026-05-05 16:04 37.34881 -93.89966 33827 ft 391 kts 270°
2026-05-05 16:04 37.34795 -93.96801 33832 ft 391 kts 270°
2026-05-05 16:05 37.34705 -94.03598 33831 ft 391 kts 270°
2026-05-05 16:05 37.34611 -94.10437 33831 ft 391 kts 270°
2026-05-05 16:06 37.34513 -94.17271 33834 ft 391 kts 270°
2026-05-05 16:06 37.34410 -94.24101 33836 ft 391 kts 270°
2026-05-05 16:07 37.34304 -94.30937 33837 ft 391 kts 270°
2026-05-05 16:07 37.34194 -94.37759 33836 ft 391 kts 270°
2026-05-05 16:08 37.34062 -94.44593 33843 ft 391 kts 270°
2026-05-05 16:08 37.33920 -94.51419 33843 ft 391 kts 270°
2026-05-05 16:09 37.33790 -94.58205 33844 ft 391 kts 270°
2026-05-05 16:09 37.33663 -94.65014 33850 ft 390 kts 270°
2026-05-05 16:10 37.33533 -94.71823 33893 ft 390 kts 270°
2026-05-05 16:10 37.33400 -94.78626 33895 ft 390 kts 270°
2026-05-05 16:11 37.33263 -94.85434 33891 ft 390 kts 270°
2026-05-05 16:12 37.32978 -94.99004 33877 ft 388 kts 269°
2026-05-05 16:13 37.32600 -95.15953 33877 ft 388 kts 269°
2026-05-05 16:13 37.32469 -95.21574 33883 ft 388 kts 269°
2026-05-05 16:14 37.32143 -95.35127 33893 ft 387 kts 269°
2026-05-05 16:15 37.31787 -95.48583 33898 ft 386 kts 269°
2026-05-05 16:16 37.31398 -95.62057 33899 ft 386 kts 269°
2026-05-05 16:17 37.31120 -95.72124 33876 ft 386 kts 269°
2026-05-05 16:18 37.30836 -95.82201 33869 ft 384 kts 268°
2026-05-05 16:19 37.30543 -95.92267 33870 ft 385 kts 268°
2026-05-05 16:19 37.30242 -96.02337 33874 ft 385 kts 268°
2026-05-05 16:20 37.29829 -96.15722 33873 ft 384 kts 268°
2026-05-05 16:22 37.29288 -96.32514 33872 ft 384 kts 268°
2026-05-05 16:23 37.28841 -96.45883 33873 ft 384 kts 268°
2026-05-05 16:23 37.28464 -96.55974 33867 ft 385 kts 267°
2026-05-05 16:24 37.28211 -96.62656 33869 ft 385 kts 267°
2026-05-05 16:25 37.27843 -96.72748 33869 ft 385 kts 268°
2026-05-05 16:25 37.27472 -96.82836 33870 ft 385 kts 268°
2026-05-05 16:26 37.26964 -96.96301 33869 ft 386 kts 267°
2026-05-05 16:27 37.26706 -97.02988 33881 ft 386 kts 267°
2026-05-05 16:27 37.26443 -97.09711 33894 ft 384 kts 267°
2026-05-05 16:28 37.26176 -97.16416 33885 ft 384 kts 267°
2026-05-05 16:28 37.25907 -97.23106 33882 ft 384 kts 267°
2026-05-05 16:29 37.25633 -97.29803 33877 ft 384 kts 267°
2026-05-05 16:29 37.25356 -97.36499 33874 ft 384 kts 267°
2026-05-05 16:30 37.25076 -97.43154 33870 ft 384 kts 267°
2026-05-05 16:30 37.24791 -97.49846 33867 ft 384 kts 267°
2026-05-05 16:31 37.24489 -97.56545 33868 ft 384 kts 266°
2026-05-05 16:31 37.24171 -97.63242 33867 ft 383 kts 266°
2026-05-05 16:32 37.23864 -97.69923 33877 ft 383 kts 266°
2026-05-05 16:32 37.23562 -97.76601 33880 ft 383 kts 266°
2026-05-05 16:33 37.23260 -97.83239 33891 ft 383 kts 266°
2026-05-05 16:33 37.22953 -97.89917 33894 ft 383 kts 266°
2026-05-05 16:34 37.22642 -97.96592 33903 ft 383 kts 266°
2026-05-05 16:34 37.22327 -98.03280 33909 ft 384 kts 266°
2026-05-05 16:35 37.22008 -98.09967 33906 ft 384 kts 266°
2026-05-05 16:35 37.21686 -98.16655 33904 ft 384 kts 266°
2026-05-05 16:36 37.21359 -98.23343 33900 ft 384 kts 266°
2026-05-05 16:36 37.21031 -98.29988 33897 ft 384 kts 266°
2026-05-05 16:37 37.20698 -98.36667 33890 ft 385 kts 265°
2026-05-05 16:37 37.20358 -98.43385 33887 ft 386 kts 265°
2026-05-05 16:38 37.20015 -98.50104 33876 ft 386 kts 265°
2026-05-05 16:38 37.19668 -98.56813 33875 ft 386 kts 265°
2026-05-05 16:39 37.19292 -98.63520 33882 ft 385 kts 265°
2026-05-05 16:39 37.18918 -98.70236 33883 ft 385 kts 265°
2026-05-05 16:40 37.18553 -98.76961 33885 ft 387 kts 265°
2026-05-05 16:40 37.18187 -98.83710 33895 ft 388 kts 265°
2026-05-05 16:41 37.17822 -98.90410 33890 ft 388 kts 265°
2026-05-05 16:41 37.17450 -98.97164 33895 ft 388 kts 265°
2026-05-05 16:42 37.17073 -99.03928 33898 ft 388 kts 265°
2026-05-05 16:42 37.16694 -99.10676 33892 ft 388 kts 264°
2026-05-05 16:43 37.16309 -99.17449 33899 ft 389 kts 264°
2026-05-05 16:43 37.15923 -99.24169 33899 ft 390 kts 264°
2026-05-05 16:44 37.15530 -99.30943 33899 ft 389 kts 264°
2026-05-05 16:44 37.15133 -99.37722 33905 ft 389 kts 264°
2026-05-05 16:45 37.14732 -99.44501 33908 ft 389 kts 264°
2026-05-05 16:45 37.14328 -99.51274 33910 ft 389 kts 264°
2026-05-05 16:46 37.13923 -99.57997 33908 ft 389 kts 264°
2026-05-05 16:46 37.13497 -99.64765 33909 ft 389 kts 263°
2026-05-05 16:47 37.13056 -99.71531 33911 ft 389 kts 263°
2026-05-05 16:47 37.12626 -99.78286 33910 ft 389 kts 264°
2026-05-05 16:48 37.12201 -99.85039 33901 ft 389 kts 263°
2026-05-05 16:48 37.11773 -99.91804 33910 ft 389 kts 263°
2026-05-05 16:49 37.11342 -99.98567 33911 ft 389 kts 263°
2026-05-05 16:49 37.10910 -100.05288 33911 ft 389 kts 263°
2026-05-05 16:50 37.10471 -100.12046 33915 ft 389 kts 263°
2026-05-05 16:50 37.10027 -100.18817 33916 ft 389 kts 263°
2026-05-05 16:51 37.09581 -100.25576 33912 ft 389 kts 263°
2026-05-05 16:51 37.09132 -100.32322 33913 ft 389 kts 263°
2026-05-05 16:52 37.08678 -100.39069 33913 ft 389 kts 263°
2026-05-05 16:52 37.08220 -100.45825 33914 ft 389 kts 263°
2026-05-05 16:53 37.07762 -100.52529 33924 ft 389 kts 263°
2026-05-05 16:53 37.07297 -100.59278 33941 ft 389 kts 263°
2026-05-05 16:54 37.06824 -100.66025 33947 ft 389 kts 262°
2026-05-05 16:54 37.06323 -100.72776 33967 ft 389 kts 262°
2026-05-05 16:55 37.05833 -100.79484 33978 ft 389 kts 262°
2026-05-05 16:55 37.05344 -100.86224 33989 ft 388 kts 262°
2026-05-05 16:56 37.04487 -100.92884 33989 ft 388 kts 257°
2026-05-05 16:56 37.03408 -100.99508 33990 ft 388 kts 257°
2026-05-05 16:57 37.02325 -101.06124 33989 ft 388 kts 257°
2026-05-05 16:57 37.01258 -101.12708 33975 ft 388 kts 257°
2026-05-05 16:58 37.00191 -101.19311 33961 ft 387 kts 257°
2026-05-05 16:58 36.99122 -101.25911 33971 ft 387 kts 257°
2026-05-05 16:59 36.98047 -101.32522 33969 ft 387 kts 257°
2026-05-05 16:59 36.96971 -101.39118 33966 ft 387 kts 257°
2026-05-05 17:00 36.96075 -101.44593 33960 ft 387 kts 257°
2026-05-05 17:00 36.94992 -101.51183 33948 ft 387 kts 257°
2026-05-05 17:01 36.93907 -101.57769 33951 ft 387 kts 257°
2026-05-05 17:01 36.92815 -101.64366 33974 ft 387 kts 257°
2026-05-05 17:02 36.91729 -101.70906 33998 ft 387 kts 257°
2026-05-05 17:02 36.90632 -101.77490 34015 ft 386 kts 257°
2026-05-05 17:03 36.89533 -101.84058 34024 ft 386 kts 257°
2026-05-05 17:03 36.88423 -101.90634 34020 ft 386 kts 256°
2026-05-05 17:04 36.87291 -101.97193 34002 ft 386 kts 256°
2026-05-05 17:04 36.86166 -102.03758 33956 ft 386 kts 257°
2026-05-05 17:05 36.85052 -102.10307 33955 ft 384 kts 256°
2026-05-05 17:05 36.83940 -102.16829 33928 ft 384 kts 256°
2026-05-05 17:06 36.82832 -102.23317 33883 ft 384 kts 256°
2026-05-05 17:06 36.81714 -102.29835 33884 ft 384 kts 256°
2026-05-05 17:07 36.80594 -102.36347 33889 ft 384 kts 256°
2026-05-05 17:07 36.79470 -102.42854 33898 ft 383 kts 256°
2026-05-05 17:08 36.78352 -102.49311 33889 ft 383 kts 256°
2026-05-05 17:08 36.77224 -102.55796 33889 ft 383 kts 256°
2026-05-05 17:09 36.76093 -102.62281 33889 ft 383 kts 256°
2026-05-05 17:09 36.74958 -102.68762 33887 ft 383 kts 256°
2026-05-05 17:10 36.73818 -102.75252 33887 ft 383 kts 256°
2026-05-05 17:10 36.72675 -102.81737 33885 ft 383 kts 256°
2026-05-05 17:11 36.71527 -102.88230 33881 ft 383 kts 256°
2026-05-05 17:11 36.70359 -102.94714 33881 ft 383 kts 255°
2026-05-05 17:12 36.69189 -103.01155 33882 ft 383 kts 255°
2026-05-05 17:12 36.68023 -103.07633 33887 ft 383 kts 256°
2026-05-05 17:13 36.66860 -103.14111 33893 ft 383 kts 255°
2026-05-05 17:13 36.65695 -103.20588 33887 ft 384 kts 255°
2026-05-05 17:14 36.64521 -103.27091 33880 ft 384 kts 255°
2026-05-05 17:14 36.63345 -103.33590 33885 ft 384 kts 255°
2026-05-05 17:15 36.62167 -103.40078 33882 ft 384 kts 255°
2026-05-05 17:15 36.60984 -103.46570 33882 ft 384 kts 255°
2026-05-05 17:16 36.59798 -103.53057 33879 ft 385 kts 255°
2026-05-05 17:16 36.58612 -103.59522 33879 ft 385 kts 255°
2026-05-05 17:17 36.57415 -103.66026 33876 ft 385 kts 255°
2026-05-05 17:17 36.56214 -103.72528 33874 ft 385 kts 255°
2026-05-05 17:18 36.55011 -103.79026 33865 ft 385 kts 255°
2026-05-05 17:18 36.53811 -103.85478 33857 ft 385 kts 255°
2026-05-05 17:19 36.52598 -103.91974 33864 ft 385 kts 254°
2026-05-05 17:19 36.51359 -103.98450 33848 ft 385 kts 254°
2026-05-05 17:20 36.50126 -104.04938 33847 ft 385 kts 254°
2026-05-05 17:20 36.48899 -104.11429 33835 ft 385 kts 254°
2026-05-05 17:21 36.47682 -104.17869 33833 ft 385 kts 254°
2026-05-05 17:22 36.45836 -104.27605 33815 ft 386 kts 254°
2026-05-05 17:22 36.44599 -104.34099 33815 ft 386 kts 254°
2026-05-05 17:23 36.43360 -104.40589 33793 ft 386 kts 253°
2026-05-05 17:23 36.42117 -104.47076 33793 ft 386 kts 253°
2026-05-05 17:24 36.40871 -104.53564 33770 ft 386 kts 253°
2026-05-05 17:24 36.39620 -104.60052 33769 ft 386 kts 253°
2026-05-05 17:25 36.38366 -104.66534 33758 ft 386 kts 253°
2026-05-05 17:25 36.37119 -104.72965 33759 ft 386 kts 253°
2026-05-05 17:26 36.35859 -104.79439 33756 ft 386 kts 253°
2026-05-05 17:26 36.34596 -104.85909 33756 ft 386 kts 253°
2026-05-05 17:27 36.33328 -104.92372 33763 ft 386 kts 253°
2026-05-05 17:27 36.32030 -104.98843 33762 ft 387 kts 253°
2026-05-05 17:27 36.31383 -105.02079 33876 ft 387 kts 253°
2026-05-05 17:28 36.30736 -105.05326 33895 ft 387 kts 253°
2026-05-05 17:28 36.29463 -105.11743 33934 ft 387 kts 253°
2026-05-05 17:29 36.28177 -105.18229 33952 ft 387 kts 253°
2026-05-05 17:29 36.26890 -105.24703 33966 ft 387 kts 253°
2026-05-05 17:30 36.25598 -105.31177 33957 ft 387 kts 253°
2026-05-05 17:30 36.24301 -105.37661 33939 ft 387 kts 253°
2026-05-05 17:31 36.23005 -105.44128 33912 ft 387 kts 253°
2026-05-05 17:31 36.21703 -105.50593 33879 ft 387 kts 253°
2026-05-05 17:32 36.20399 -105.57050 33834 ft 387 kts 253°
2026-05-05 17:32 36.19099 -105.63470 33797 ft 387 kts 253°
2026-05-05 17:33 36.17787 -105.69934 33801 ft 387 kts 252°
2026-05-05 17:33 36.16472 -105.76387 33795 ft 387 kts 252°
2026-05-05 17:34 36.15153 -105.82844 33796 ft 387 kts 252°
2026-05-05 17:34 36.13829 -105.89303 33797 ft 387 kts 252°
2026-05-05 17:35 36.12489 -105.95745 33796 ft 386 kts 252°
2026-05-05 17:35 36.11138 -106.02186 33839 ft 387 kts 252°